• In Austria
  • List of Countries
  • For 7 days
  • Water Temperature
  • Satellite Maps
  • Weather Map
  • News
  • Weather Widgets
  • user-avatar
    Login

    Hourly Weather Artashat

    Today, 20 July, Friday

    Time Temperature Precipitation Wind Pressure Humidity
    00:00 +19°C° 0 mm 2 mps 600 mmHg 31%
    01:00 +18°C° 0 mm 2 mps 600 mmHg 33%
    02:00 +17°C° 0 mm 2 mps 600 mmHg 35%
    03:00 +18°C° 0 mm 1 mps 599 mmHg 37%
    04:00 +18°C° 0 mm 1 mps 600 mmHg 38%
    05:00 +19°C° 0 mm 1 mps 600 mmHg 39%
    06:00 +19°C° 0 mm 1 mps 600 mmHg 39%
    07:00 +21°C° 0 mm 1 mps 601 mmHg 33%
    08:00 +23°C° 0 mm 1 mps 601 mmHg 27%
    09:00 +25°C° 0 mm 2 mps 602 mmHg 21%
    10:00 +27°C° 0 mm 2 mps 602 mmHg 19%
    11:00 +28°C° 0 mm 2 mps 602 mmHg 16%
    12:00 +29°C° 0 mm 2 mps 603 mmHg 13%
    13:00 +30°C° 0 mm 3 mps 603 mmHg 12%
    14:00 +31°C° 0 mm 3 mps 602 mmHg 11%
    15:00 +31°C° 0 mm 3 mps 602 mmHg 10%
    16:00 +31°C° 0 mm 3 mps 602 mmHg 11%
    17:00 +30°C° 0 mm 3 mps 602 mmHg 12%
    18:00 +30°C° 0 mm 3 mps 601 mmHg 13%
    19:00 +27°C° 0 mm 3 mps 601 mmHg 17%
    20:00 +25°C° 0 mm 3 mps 600 mmHg 20%
    21:00 +21°C° 0 mm 3 mps 600 mmHg 24%
    22:00 +20°C° 0 mm 3 mps 600 mmHg 26%
    23:00 +20°C° 0 mm 3 mps 600 mmHg 28%

    Tomorrow, 21 July, Saturday

    Time Temperature Precipitation Wind Pressure Humidity
    00:00 +19°C° 0 mm 2 mps 600 mmHg 30%
    01:00 +18°C° 0 mm 2 mps 600 mmHg 32%
    02:00 +17°C° 0 mm 2 mps 599 mmHg 33%
    03:00 +17°C° 0 mm 2 mps 599 mmHg 35%
    04:00 +17°C° 0 mm 2 mps 600 mmHg 37%
    05:00 +17°C° 0 mm 2 mps 600 mmHg 38%
    06:00 +17°C° 0 mm 2 mps 600 mmHg 40%
    07:00 +19°C° 0 mm 2 mps 601 mmHg 37%
    08:00 +21°C° 0 mm 2 mps 601 mmHg 33%
    09:00 +24°C° 0 mm 2 mps 602 mmHg 30%
    10:00 +25°C° 0 mm 2 mps 602 mmHg 27%
    11:00 +26°C° 0 mm 2 mps 602 mmHg 24%
    12:00 +27°C° 0 mm 2 mps 603 mmHg 21%
    13:00 +28°C° 0 mm 2 mps 603 mmHg 19%
    14:00 +29°C° 0 mm 3 mps 603 mmHg 18%
    15:00 +29°C° 0 mm 3 mps 603 mmHg 17%
    16:00 +29°C° 0 mm 3 mps 603 mmHg 18%
    17:00 +28°C° 0 mm 4 mps 602 mmHg 19%
    18:00 +28°C° 0 mm 4 mps 602 mmHg 20%
    19:00 +26°C° 0 mm 3 mps 602 mmHg 26%
    20:00 +24°C° 0 mm 3 mps 602 mmHg 31%
    21:00 +21°C° 0 mm 3 mps 601 mmHg 36%
    22:00 +20°C° 0 mm 2 mps 601 mmHg 40%
    23:00 +19°C° 0 mm 2 mps 601 mmHg 44%

    Day after tomorrow, 22 July, Sunday

    Time Temperature Precipitation Wind Pressure Humidity
    00:00 +18°C° 0 mm 2 mps 601 mmHg 49%
    01:00 +18°C° 0 mm 2 mps 601 mmHg 52%
    02:00 +17°C° 0 mm 2 mps 600 mmHg 55%
    03:00 +16°C° 0 mm 2 mps 600 mmHg 58%
    04:00 +16°C° 0 mm 2 mps 600 mmHg 58%
    05:00 +17°C° 0 mm 2 mps 601 mmHg 58%
    06:00 +17°C° 0 mm 2 mps 601 mmHg 59%
    07:00 +19°C° 0 mm 2 mps 601 mmHg 52%
    08:00 +20°C° 0 mm 2 mps 602 mmHg 46%
    09:00 +23°C° 0 mm 2 mps 602 mmHg 39%
    10:00 +25°C° 0 mm 2 mps 602 mmHg 35%
    11:00 +26°C° 0 mm 3 mps 603 mmHg 32%
    12:00 +27°C° 0 mm 3 mps 603 mmHg 28%
    13:00 +28°C° 0 mm 3 mps 603 mmHg 27%
    14:00 +28°C° 0 mm 3 mps 602 mmHg 26%
    15:00 +29°C° 0 mm 3 mps 602 mmHg 25%
    16:00 +27°C° 0.1 mm 4 mps 602 mmHg 28%
    17:00 +26°C° 0.1 mm 4 mps 601 mmHg 32%
    18:00 +25°C° 0.1 mm 4 mps 601 mmHg 35%
    19:00 +22°C° 0 mm 4 mps 601 mmHg 40%
    20:00 +20°C° 0 mm 3 mps 601 mmHg 45%
    21:00 +19°C° 0 mm 2 mps 600 mmHg 50%
    22:00 +18°C° 0 mm 2 mps 600 mmHg 52%
    23:00 +18°C° 0 mm 2 mps 600 mmHg 53%

    23 July, Monday

    Time Temperature Precipitation Wind Pressure Humidity
    00:00 +17°C° 0 mm 2 mps 600 mmHg 55%
    01:00 +17°C° 0 mm 2 mps 600 mmHg 55%
    02:00 +16°C° 0 mm 2 mps 600 mmHg 56%
    03:00 +16°C° 0 mm 2 mps 600 mmHg 57%
    04:00 +16°C° 0 mm 1 mps 600 mmHg 57%
    05:00 +18°C° 0 mm 1 mps 600 mmHg 56%
    06:00 +18°C° 0 mm 1 mps 600 mmHg 56%
    07:00 +19°C° 0 mm 2 mps 601 mmHg 50%
    08:00 +20°C° 0 mm 2 mps 601 mmHg 45%
    09:00 +23°C° 0 mm 2 mps 602 mmHg 39%
    10:00 +24°C° 0 mm 2 mps 602 mmHg 35%
    11:00 +26°C° 0 mm 2 mps 602 mmHg 32%
    12:00 +27°C° 0 mm 2 mps 602 mmHg 28%
    13:00 +27°C° 0.2 mm 2 mps 602 mmHg 29%
    14:00 +27°C° 0.2 mm 2 mps 601 mmHg 30%
    15:00 +27°C° 0.2 mm 2 mps 601 mmHg 31%
    16:00 +26°C° 0.1 mm 2 mps 601 mmHg 33%
    17:00 +25°C° 0.1 mm 2 mps 601 mmHg 36%
    18:00 +24°C° 0.1 mm 2 mps 601 mmHg 39%
    19:00 +23°C° 0 mm 2 mps 601 mmHg 42%
    20:00 +21°C° 0 mm 2 mps 601 mmHg 46%
    21:00 +20°C° 0 mm 2 mps 601 mmHg 49%
    22:00 +19°C° 0 mm 2 mps 601 mmHg 52%
    23:00 +18°C° 0 mm 2 mps 601 mmHg 54%

    24 July, Tuesday

    Time Temperature Precipitation Wind Pressure Humidity
    00:00 +18°C° 0 mm 2 mps 601 mmHg 56%
    01:00 +17°C° 0 mm 2 mps 600 mmHg 59%
    02:00 +16°C° 0 mm 1 mps 600 mmHg 61%
    03:00 +16°C° 0 mm 1 mps 600 mmHg 63%
    04:00 +16°C° 0 mm 1 mps 600 mmHg 62%
    05:00 +18°C° 0 mm 1 mps 601 mmHg 60%
    06:00 +18°C° 0 mm 1 mps 601 mmHg 59%
    07:00 +20°C° 0 mm 1 mps 602 mmHg 51%
    08:00 +22°C° 0 mm 1 mps 602 mmHg 43%
    09:00 +24°C° 0 mm 2 mps 603 mmHg 36%
    10:00 +25°C° 0 mm 2 mps 603 mmHg 32%
    11:00 +27°C° 0 mm 2 mps 603 mmHg 28%
    12:00 +28°C° 0 mm 2 mps 604 mmHg 25%
    13:00 +29°C° 0 mm 2 mps 604 mmHg 23%
    14:00 +30°C° 0 mm 2 mps 604 mmHg 21%
    15:00 +30°C° 0 mm 2 mps 604 mmHg 20%
    16:00 +30°C° 0 mm 2 mps 604 mmHg 20%
    17:00 +30°C° 0 mm 2 mps 604 mmHg 21%
    18:00 +29°C° 0 mm 2 mps 604 mmHg 21%
    19:00 +27°C° 0 mm 2 mps 603 mmHg 26%
    20:00 +25°C° 0 mm 2 mps 603 mmHg 31%
    21:00 +23°C° 0 mm 1 mps 603 mmHg 35%
    22:00 +22°C° 0 mm 1 mps 603 mmHg 37%
    23:00 +21°C° 0 mm 1 mps 602 mmHg 39%

    25 July, Wednesday

    Time Temperature Precipitation Wind Pressure Humidity
    00:00 +21°C° 0 mm 1 mps 602 mmHg 41%
    01:00 +20°C° 0 mm 1 mps 602 mmHg 42%
    02:00 +20°C° 0 mm 1 mps 602 mmHg 43%
    03:00 +19°C° 0 mm 1 mps 602 mmHg 44%
    04:00 +20°C° 0 mm 1 mps 602 mmHg 44%
    05:00 +20°C° 0 mm 1 mps 603 mmHg 44%
    06:00 +20°C° 0 mm 1 mps 603 mmHg 44%
    07:00 +22°C° 0 mm 1 mps 604 mmHg 39%
    08:00 +24°C° 0 mm 2 mps 604 mmHg 33%
    09:00 +26°C° 0 mm 2 mps 605 mmHg 28%
    10:00 +28°C° 0 mm 2 mps 605 mmHg 25%
    11:00 +29°C° 0 mm 2 mps 605 mmHg 22%
    12:00 +31°C° 0 mm 2 mps 605 mmHg 19%
    13:00 +33°C° 0 mm 3 mps 605 mmHg 18%
    14:00 +34°C° 0 mm 3 mps 605 mmHg 17%
    15:00 +35°C° 0 mm 3 mps 605 mmHg 15%
    16:00 +34°C° 0 mm 3 mps 605 mmHg 16%
    17:00 +34°C° 0 mm 3 mps 605 mmHg 17%
    18:00 +33°C° 0 mm 3 mps 605 mmHg 18%
    19:00 +30°C° 0 mm 3 mps 604 mmHg 23%
    20:00 +28°C° 0 mm 2 mps 604 mmHg 27%
    21:00 +26°C° 0 mm 2 mps 603 mmHg 32%
    22:00 +25°C° 0 mm 2 mps 603 mmHg 34%
    23:00 +24°C° 0 mm 2 mps 603 mmHg 36%
    Show more